contact:dominique.lefevre@mio.osupytheas.fr, maurice.libes@osupytheas.fr, didier.mallarino@osupytheas.fr
Project:EMSO http://www.emso-fr.org/EMSO-France
Depth: 2436.0 m
Title:EMSO Ligure Ouest : Data MII capteur CSTAR
DateTime,Latitude,Longitude,Instrument_Serial,Reference_Counts,Signal_Counts,Corrected_Signal_raw_counts,Calculated_Beam_c_inverse_meters,Internal_thermistor_counts
DateTime,Latitude,Longitude,Instrument_Serial,Reference_Counts,Signal_Counts,Corrected_Signal_raw_counts,Calculated_Beam_c_inverse_meters,Internal_thermistor_counts
2021-09-14T00:01:31,42.805,6.029,CST-1368DR,5225,7124,14604,0.268,551
2021-09-14T00:04:32,42.805,6.029,CST-1368DR,5225,7125,14604,0.268,551
2021-09-14T00:07:34,42.805,6.029,CST-1368DR,5225,7124,14604,0.268,551
2021-09-14T00:10:35,42.805,6.029,CST-1368DR,5225,7125,14605,0.268,551
2021-09-14T00:13:37,42.805,6.029,CST-1368DR,5225,7124,14604,0.268,551
2021-09-14T00:16:38,42.805,6.029,CST-1368DR,5225,7124,14603,0.268,551
2021-09-14T00:19:40,42.805,6.029,CST-1368DR,5225,7125,14604,0.268,551
2021-09-14T00:22:42,42.805,6.029,CST-1368DR,5225,7124,14604,0.268,551
2021-09-14T00:25:43,42.805,6.029,CST-1368DR,5225,7125,14604,0.268,551
2021-09-14T00:28:45,42.805,6.029,CST-1368DR,5225,7124,14603,0.268,551
2021-09-14T00:31:46,42.805,6.029,CST-1368DR,5225,7124,14602,0.269,551
2021-09-14T00:34:48,42.805,6.029,CST-1368DR,5225,7124,14603,0.268,551
2021-09-14T00:37:49,42.805,6.029,CST-1368DR,5225,7123,14601,0.269,551
2021-09-14T00:40:51,42.805,6.029,CST-1368DR,5225,7125,14604,0.268,551
2021-09-14T00:43:53,42.805,6.029,CST-1368DR,5225,7124,14603,0.268,551
2021-09-14T00:46:54,42.805,6.029,CST-1368DR,5225,7124,14604,0.268,551
2021-09-14T00:49:56,42.805,6.029,CST-1368DR,5225,7124,14603,0.268,551
2021-09-14T00:52:57,42.805,6.029,CST-1368DR,5225,7124,14604,0.268,551
2021-09-14T00:55:59,42.805,6.029,CST-1368DR,5225,7124,14603,0.268,551
2021-09-14T00:59:01,42.805,6.029,CST-1368DR,5225,7124,14602,0.269,551
2021-09-14T01:02:02,42.805,6.029,CST-1368DR,5225,7124,14603,0.268,551
2021-09-14T01:05:04,42.805,6.029,CST-1368DR,5225,7123,14602,0.269,551
2021-09-14T01:08:05,42.805,6.029,CST-1368DR,5225,7124,14603,0.268,551
2021-09-14T01:11:07,42.805,6.029,CST-1368DR,5225,7124,14602,0.269,551
2021-09-14T01:14:08,42.805,6.029,CST-1368DR,5225,7123,14602,0.269,551
2021-09-14T01:17:10,42.805,6.029,CST-1368DR,5225,7124,14602,0.269,551
2021-09-14T01:20:12,42.805,6.029,CST-1368DR,5225,7124,14602,0.269,551
2021-09-14T01:23:13,42.805,6.029,CST-1368DR,5225,7123,14602,0.269,551
2021-09-14T01:26:15,42.805,6.029,CST-1368DR,5224,7124,14605,0.268,551
2021-09-14T01:29:16,42.805,6.029,CST-1368DR,5225,7124,14603,0.268,551
2021-09-14T01:32:18,42.805,6.029,CST-1368DR,5225,7123,14602,0.269,550
2021-09-14T01:35:20,42.805,6.029,CST-1368DR,5225,7124,14602,0.269,551
2021-09-14T01:38:21,42.805,6.029,CST-1368DR,5225,7124,14604,0.268,551
2021-09-14T01:41:23,42.805,6.029,CST-1368DR,5224,7124,14605,0.268,551
2021-09-14T01:44:24,42.805,6.029,CST-1368DR,5224,7123,14604,0.268,551
2021-09-14T01:47:26,42.805,6.029,CST-1368DR,5224,7124,14605,0.268,551
2021-09-14T01:50:27,42.805,6.029,CST-1368DR,5224,7124,14605,0.268,551
2021-09-14T01:53:29,42.805,6.029,CST-1368DR,5225,7124,14603,0.268,551
2021-09-14T01:56:31,42.805,6.029,CST-1368DR,5225,7123,14602,0.269,551
2021-09-14T01:59:32,42.805,6.029,CST-1368DR,5225,7124,14602,0.269,551
2021-09-14T02:02:34,42.805,6.029,CST-1368DR,5225,7123,14601,0.269,551
2021-09-14T02:05:35,42.805,6.029,CST-1368DR,5225,7123,14601,0.269,551
2021-09-14T02:08:37,42.805,6.029,CST-1368DR,5225,7124,14602,0.269,551
2021-09-14T02:11:38,42.805,6.029,CST-1368DR,5225,7124,14602,0.269,551
2021-09-14T02:14:40,42.805,6.029,CST-1368DR,5224,7123,14604,0.268,551
2021-09-14T02:17:42,42.805,6.029,CST-1368DR,5225,7124,14603,0.268,551
2021-09-14T02:20:43,42.805,6.029,CST-1368DR,5225,7123,14601,0.269,551
2021-09-14T02:23:45,42.805,6.029,CST-1368DR,5225,7123,14601,0.269,551
2021-09-14T02:26:46,42.805,6.029,CST-1368DR,5224,7124,14605,0.268,551
2021-09-14T02:29:48,42.805,6.029,CST-1368DR,5224,7124,14605,0.268,551
2021-09-14T02:32:50,42.805,6.029,CST-1368DR,5224,7124,14605,0.268,551
2021-09-14T02:35:51,42.805,6.029,CST-1368DR,5225,7124,14602,0.269,551
2021-09-14T02:38:53,42.805,6.029,CST-1368DR,5224,7123,14603,0.268,551
2021-09-14T02:41:54,42.805,6.029,CST-1368DR,5224,7123,14604,0.268,551
2021-09-14T02:44:56,42.805,6.029,CST-1368DR,5224,7123,14604,0.268,551
2021-09-14T02:47:57,42.805,6.029,CST-1368DR,5224,7124,14605,0.268,551
2021-09-14T02:50:59,42.805,6.029,CST-1368DR,5224,7122,14602,0.269,551
2021-09-14T02:54:01,42.805,6.029,CST-1368DR,5224,7123,14603,0.268,551
2021-09-14T02:57:02,42.805,6.029,CST-1368DR,5224,7124,14605,0.268,551
2021-09-14T03:00:04,42.805,6.029,CST-1368DR,5224,7123,14604,0.268,551
2021-09-14T03:03:05,42.805,6.029,CST-1368DR,5224,7123,14604,0.268,551
2021-09-14T03:06:07,42.805,6.029,CST-1368DR,5224,7122,14602,0.269,551
2021-09-14T03:09:09,42.805,6.029,CST-1368DR,5224,7123,14604,0.268,551
2021-09-14T03:12:10,42.805,6.029,CST-1368DR,5224,7123,14604,0.268,551
2021-09-14T03:15:12,42.805,6.029,CST-1368DR,5224,7123,14604,0.268,551
2021-09-14T03:18:13,42.805,6.029,CST-1368DR,5225,7123,14601,0.269,551
2021-09-14T03:21:15,42.805,6.029,CST-1368DR,5224,7123,14604,0.268,550
2021-09-14T03:24:16,42.805,6.029,CST-1368DR,5224,7123,14604,0.268,551
2021-09-14T03:27:18,42.805,6.029,CST-1368DR,5224,7123,14604,0.268,551
2021-09-14T03:30:20,42.805,6.029,CST-1368DR,5224,7123,14603,0.268,551
2021-09-14T03:33:21,42.805,6.029,CST-1368DR,5224,7123,14604,0.268,551
2021-09-14T03:36:23,42.805,6.029,CST-1368DR,5224,7123,14604,0.268,551
2021-09-14T03:39:24,42.805,6.029,CST-1368DR,5224,7123,14603,0.268,551
2021-09-14T03:42:26,42.805,6.029,CST-1368DR,5224,7122,14602,0.269,551
2021-09-14T03:45:27,42.805,6.029,CST-1368DR,5224,7123,14604,0.268,551
2021-09-14T03:48:29,42.805,6.029,CST-1368DR,5224,7123,14604,0.268,551
2021-09-14T03:51:31,42.805,6.029,CST-1368DR,5224,7123,14603,0.268,551
2021-09-14T03:54:32,42.805,6.029,CST-1368DR,5224,7123,14603,0.268,551
2021-09-14T03:57:34,42.805,6.029,CST-1368DR,5224,7124,14605,0.268,551
2021-09-14T04:00:35,42.805,6.029,CST-1368DR,5224,7123,14604,0.268,551
2021-09-14T04:03:37,42.805,6.029,CST-1368DR,5224,7123,14603,0.268,551
2021-09-14T04:06:39,42.805,6.029,CST-1368DR,5224,7123,14604,0.268,551
2021-09-14T04:09:40,42.805,6.029,CST-1368DR,5224,7123,14604,0.268,551
2021-09-14T04:12:42,42.805,6.029,CST-1368DR,5224,7123,14603,0.268,551
2021-09-14T04:15:43,42.805,6.029,CST-1368DR,5224,7123,14603,0.268,551
2021-09-14T04:18:45,42.805,6.029,CST-1368DR,5224,7122,14601,0.269,551
2021-09-14T04:21:46,42.805,6.029,CST-1368DR,5224,7123,14603,0.268,551
2021-09-14T04:24:48,42.805,6.029,CST-1368DR,5224,7123,14604,0.268,551
2021-09-14T04:27:50,42.805,6.029,CST-1368DR,5224,7123,14603,0.268,551
2021-09-14T04:30:51,42.805,6.029,CST-1368DR,5224,7123,14603,0.268,551
2021-09-14T04:33:53,42.805,6.029,CST-1368DR,5224,7123,14603,0.268,551
2021-09-14T04:36:54,42.805,6.029,CST-1368DR,5224,7123,14603,0.268,551
2021-09-14T04:39:56,42.805,6.029,CST-1368DR,5224,7122,14602,0.269,551
2021-09-14T04:42:58,42.805,6.029,CST-1368DR,5224,7123,14604,0.268,551
2021-09-14T04:45:59,42.805,6.029,CST-1368DR,5224,7123,14603,0.268,551
2021-09-14T04:49:01,42.805,6.029,CST-1368DR,5224,7123,14604,0.268,551
2021-09-14T04:52:02,42.805,6.029,CST-1368DR,5224,7122,14602,0.269,551
2021-09-14T04:55:04,42.805,6.029,CST-1368DR,5224,7122,14602,0.269,551
2021-09-14T04:58:05,42.805,6.029,CST-1368DR,5224,7123,14603,0.268,551
2021-09-14T05:01:07,42.805,6.029,CST-1368DR,5224,7122,14602,0.269,551
2021-09-14T05:04:09,42.805,6.029,CST-1368DR,5224,7122,14602,0.269,551
2021-09-14T05:07:10,42.805,6.029,CST-1368DR,5224,7122,14602,0.269,551
2021-09-14T05:10:12,42.805,6.029,CST-1368DR,5224,7123,14603,0.268,551
2021-09-14T05:13:13,42.805,6.029,CST-1368DR,5224,7123,14603,0.268,551
2021-09-14T05:16:15,42.805,6.029,CST-1368DR,5224,7122,14602,0.269,551
2021-09-14T05:19:16,42.805,6.029,CST-1368DR,5224,7122,14602,0.269,551
2021-09-14T05:22:18,42.805,6.029,CST-1368DR,5224,7123,14603,0.268,551
2021-09-14T05:25:20,42.805,6.029,CST-1368DR,5224,7122,14602,0.269,551
2021-09-14T05:28:21,42.805,6.029,CST-1368DR,5224,7122,14602,0.269,551
2021-09-14T05:31:23,42.805,6.029,CST-1368DR,5224,7122,14602,0.269,551
2021-09-14T05:34:24,42.805,6.029,CST-1368DR,5224,7122,14601,0.269,551
2021-09-14T05:37:26,42.805,6.029,CST-1368DR,5224,7122,14602,0.269,551
2021-09-14T05:40:28,42.805,6.029,CST-1368DR,5224,7122,14602,0.269,551
2021-09-14T05:43:29,42.805,6.029,CST-1368DR,5224,7122,14602,0.269,551
2021-09-14T05:46:31,42.805,6.029,CST-1368DR,5224,7122,14602,0.269,551
2021-09-14T05:49:32,42.805,6.029,CST-1368DR,5224,7121,14600,0.269,551
2021-09-14T05:52:34,42.805,6.029,CST-1368DR,5224,7122,14602,0.269,551
2021-09-14T05:55:35,42.805,6.029,CST-1368DR,5224,7122,14602,0.269,551
2021-09-14T05:58:37,42.805,6.029,CST-1368DR,5224,7122,14602,0.269,551
2021-09-14T06:01:39,42.805,6.029,CST-1368DR,5224,7122,14601,0.269,551
2021-09-14T06:04:40,42.805,6.029,CST-1368DR,5224,7121,14600,0.269,551
2021-09-14T06:07:42,42.805,6.029,CST-1368DR,5224,7122,14602,0.269,551
2021-09-14T06:10:43,42.805,6.029,CST-1368DR,5224,7122,14601,0.269,551
2021-09-14T06:13:45,42.805,6.029,CST-1368DR,5224,7122,14601,0.269,551
2021-09-14T06:16:47,42.805,6.029,CST-1368DR,5224,7122,14601,0.269,551
2021-09-14T06:19:48,42.805,6.029,CST-1368DR,5224,7123,14603,0.268,551
2021-09-14T06:22:50,42.805,6.029,CST-1368DR,5224,7122,14602,0.269,551
2021-09-14T06:25:51,42.805,6.029,CST-1368DR,5224,7122,14601,0.269,551
2021-09-14T06:28:53,42.805,6.029,CST-1368DR,5224,7122,14601,0.269,551
2021-09-14T06:31:54,42.805,6.029,CST-1368DR,5224,7122,14602,0.269,551
2021-09-14T06:34:56,42.805,6.029,CST-1368DR,5224,7122,14602,0.269,551
2021-09-14T06:37:58,42.805,6.029,CST-1368DR,5224,7121,14600,0.269,551
2021-09-14T06:40:59,42.805,6.029,CST-1368DR,5224,7122,14602,0.269,551
2021-09-14T06:44:01,42.805,6.029,CST-1368DR,5224,7120,14598,0.270,551
2021-09-14T06:47:02,42.805,6.029,CST-1368DR,5224,7122,14602,0.269,551
2021-09-14T06:50:04,42.805,6.029,CST-1368DR,5224,7122,14602,0.269,551
2021-09-14T06:53:05,42.805,6.029,CST-1368DR,5224,7122,14602,0.269,551
2021-09-14T06:56:07,42.805,6.029,CST-1368DR,5224,7122,14601,0.269,551
2021-09-14T06:59:09,42.805,6.029,CST-1368DR,5224,7121,14600,0.269,551
2021-09-14T07:02:10,42.805,6.029,CST-1368DR,5224,7122,14602,0.269,551
2021-09-14T07:05:12,42.805,6.029,CST-1368DR,5224,7122,14601,0.269,551
2021-09-14T07:08:13,42.805,6.029,CST-1368DR,5224,7122,14601,0.269,551
2021-09-14T07:11:15,42.805,6.029,CST-1368DR,5224,7122,14601,0.269,551
2021-09-14T07:14:17,42.805,6.029,CST-1368DR,5224,7122,14601,0.269,551
2021-09-14T07:17:18,42.805,6.029,CST-1368DR,5224,7120,14598,0.270,551
2021-09-14T07:20:20,42.805,6.029,CST-1368DR,5224,7122,14601,0.269,551
2021-09-14T07:23:21,42.805,6.029,CST-1368DR,5224,7122,14601,0.269,551
2021-09-14T07:26:23,42.805,6.029,CST-1368DR,5224,7122,14601,0.269,551
2021-09-14T07:29:24,42.805,6.029,CST-1368DR,5224,7122,14601,0.269,551
2021-09-14T07:32:26,42.805,6.029,CST-1368DR,5224,7121,14600,0.269,551
2021-09-14T07:35:28,42.805,6.029,CST-1368DR,5224,7121,14600,0.269,551
2021-09-14T07:38:29,42.805,6.029,CST-1368DR,5224,7121,14600,0.269,551
2021-09-14T07:41:31,42.805,6.029,CST-1368DR,5224,7121,14600,0.269,551
2021-09-14T07:44:32,42.805,6.029,CST-1368DR,5224,7121,14600,0.269,551
2021-09-14T07:47:34,42.805,6.029,CST-1368DR,5224,7122,14601,0.269,551
2021-09-14T07:50:36,42.805,6.029,CST-1368DR,5224,7122,14601,0.269,551
2021-09-14T07:53:37,42.805,6.029,CST-1368DR,5224,7121,14600,0.269,551
2021-09-14T07:56:39,42.805,6.029,CST-1368DR,5224,7121,14600,0.269,551
2021-09-14T07:59:40,42.805,6.029,CST-1368DR,5224,7121,14599,0.269,551
2021-09-14T08:02:42,42.805,6.029,CST-1368DR,5224,7121,14600,0.269,551
2021-09-14T08:05:43,42.805,6.029,CST-1368DR,5224,7121,14600,0.269,551
2021-09-14T08:08:45,42.805,6.029,CST-1368DR,5224,7122,14601,0.269,551
2021-09-14T08:11:47,42.805,6.029,CST-1368DR,5224,7122,14601,0.269,551
2021-09-14T08:14:48,42.805,6.029,CST-1368DR,5224,7120,14598,0.270,551
2021-09-14T08:17:50,42.805,6.029,CST-1368DR,5224,7121,14599,0.269,551
2021-09-14T08:20:51,42.805,6.029,CST-1368DR,5224,7122,14601,0.269,551
2021-09-14T08:23:53,42.805,6.029,CST-1368DR,5224,7121,14600,0.269,551
2021-09-14T08:26:54,42.805,6.029,CST-1368DR,5224,7119,14596,0.270,551
2021-09-14T08:29:56,42.805,6.029,CST-1368DR,5224,7121,14600,0.269,551
2021-09-14T08:32:58,42.805,6.029,CST-1368DR,5224,7120,14598,0.270,551
2021-09-14T08:35:59,42.805,6.029,CST-1368DR,5224,7121,14599,0.269,551
2021-09-14T08:39:01,42.805,6.029,CST-1368DR,5224,7121,14599,0.269,551
2021-09-14T08:42:02,42.805,6.029,CST-1368DR,5224,7121,14600,0.269,551
2021-09-14T08:45:04,42.805,6.029,CST-1368DR,5224,7121,14599,0.269,551
2021-09-14T08:48:06,42.805,6.029,CST-1368DR,5224,7120,14598,0.270,551
2021-09-14T08:51:07,42.805,6.029,CST-1368DR,5224,7120,14598,0.270,551
2021-09-14T08:54:09,42.805,6.029,CST-1368DR,5224,7119,14596,0.270,551
2021-09-14T08:57:10,42.805,6.029,CST-1368DR,5224,7119,14595,0.270,551
2021-09-14T09:00:12,42.805,6.029,CST-1368DR,5224,7121,14599,0.269,551
2021-09-14T09:03:13,42.805,6.029,CST-1368DR,5224,7121,14599,0.269,551
2021-09-14T09:06:15,42.805,6.029,CST-1368DR,5224,7120,14598,0.270,551
2021-09-14T09:09:17,42.805,6.029,CST-1368DR,5224,7120,14598,0.270,551
2021-09-14T09:12:18,42.805,6.029,CST-1368DR,5224,7120,14598,0.270,551
2021-09-14T09:15:20,42.805,6.029,CST-1368DR,5224,7120,14598,0.270,551
2021-09-14T09:18:21,42.805,6.029,CST-1368DR,5224,7121,14599,0.269,551
2021-09-14T09:21:23,42.805,6.029,CST-1368DR,5224,7121,14599,0.269,551
2021-09-14T09:24:25,42.805,6.029,CST-1368DR,5224,7121,14599,0.269,551
2021-09-14T09:27:26,42.805,6.029,CST-1368DR,5224,7120,14598,0.270,551
2021-09-14T09:30:28,42.805,6.029,CST-1368DR,5224,7121,14600,0.269,551
2021-09-14T09:33:29,42.805,6.029,CST-1368DR,5224,7120,14598,0.270,551
2021-09-14T09:36:31,42.805,6.029,CST-1368DR,5224,7121,14600,0.269,551
2021-09-14T09:39:32,42.805,6.029,CST-1368DR,5224,7121,14599,0.269,551
2021-09-14T09:42:34,42.805,6.029,CST-1368DR,5224,7121,14599,0.269,551
2021-09-14T09:45:36,42.805,6.029,CST-1368DR,5223,7120,14599,0.269,551
2021-09-14T09:48:37,42.805,6.029,CST-1368DR,5224,7121,14599,0.269,551
2021-09-14T09:51:39,42.805,6.029,CST-1368DR,5223,7120,14601,0.269,551
2021-09-14T09:54:40,42.805,6.029,CST-1368DR,5224,7120,14597,0.270,551
2021-09-14T09:57:42,42.805,6.029,CST-1368DR,5224,7120,14598,0.270,551
2021-09-14T10:00:43,42.805,6.029,CST-1368DR,5224,7120,14597,0.270,551
2021-09-14T10:03:45,42.805,6.029,CST-1368DR,5224,7121,14600,0.269,551
2021-09-14T10:06:47,42.805,6.029,CST-1368DR,5224,7121,14599,0.269,551
2021-09-14T10:09:48,42.805,6.029,CST-1368DR,5224,7120,14598,0.270,551
2021-09-14T10:12:50,42.805,6.029,CST-1368DR,5224,7121,14599,0.269,551
2021-09-14T10:15:51,42.805,6.029,CST-1368DR,5223,7120,14601,0.269,551
2021-09-14T10:18:53,42.805,6.029,CST-1368DR,5224,7120,14598,0.270,551
2021-09-14T10:21:55,42.805,6.029,CST-1368DR,5223,7119,14599,0.269,551
2021-09-14T10:24:56,42.805,6.029,CST-1368DR,5224,7120,14597,0.270,551
2021-09-14T10:27:58,42.805,6.029,CST-1368DR,5224,7120,14598,0.270,551
2021-09-14T10:30:59,42.805,6.029,CST-1368DR,5224,7120,14598,0.270,551
2021-09-14T10:34:01,42.805,6.029,CST-1368DR,5224,7120,14598,0.270,551
2021-09-14T10:37:02,42.805,6.029,CST-1368DR,5223,7119,14599,0.269,551
2021-09-14T10:40:04,42.805,6.029,CST-1368DR,5224,7120,14597,0.270,551
2021-09-14T10:43:06,42.805,6.029,CST-1368DR,5223,7120,14600,0.269,551
2021-09-14T10:46:07,42.805,6.029,CST-1368DR,5223,7120,14600,0.269,551
2021-09-14T10:49:09,42.805,6.029,CST-1368DR,5224,7120,14598,0.270,551
2021-09-14T10:52:10,42.805,6.029,CST-1368DR,5223,7120,14600,0.269,551
2021-09-14T10:55:12,42.805,6.029,CST-1368DR,5223,7120,14600,0.269,551
2021-09-14T10:58:14,42.805,6.029,CST-1368DR,5224,7120,14597,0.270,551
2021-09-14T11:01:15,42.805,6.029,CST-1368DR,5223,7120,14599,0.269,551
2021-09-14T11:04:17,42.805,6.029,CST-1368DR,5223,7118,14597,0.270,551
2021-09-14T11:07:18,42.805,6.029,CST-1368DR,5223,7120,14600,0.269,551
2021-09-14T11:10:20,42.805,6.029,CST-1368DR,5223,7120,14600,0.269,551
2021-09-14T11:13:21,42.805,6.029,CST-1368DR,5223,7119,14599,0.269,551
2021-09-14T11:16:23,42.805,6.029,CST-1368DR,5224,7120,14597,0.270,551
2021-09-14T11:19:25,42.805,6.029,CST-1368DR,5224,7120,14598,0.270,551
2021-09-14T11:22:26,42.805,6.029,CST-1368DR,5223,7120,14600,0.269,551
2021-09-14T11:25:28,42.805,6.029,CST-1368DR,5224,7120,14597,0.270,551
2021-09-14T11:28:29,42.805,6.029,CST-1368DR,5223,7120,14601,0.269,551
2021-09-14T11:31:31,42.805,6.029,CST-1368DR,5223,7119,14598,0.270,551
2021-09-14T11:34:32,42.805,6.029,CST-1368DR,5223,7120,14600,0.269,551
2021-09-14T11:37:34,42.805,6.029,CST-1368DR,5223,7119,14598,0.270,551
2021-09-14T11:40:36,42.805,6.029,CST-1368DR,5223,7119,14599,0.269,551
2021-09-14T11:43:37,42.805,6.029,CST-1368DR,5224,7120,14597,0.270,551
2021-09-14T11:46:39,42.805,6.029,CST-1368DR,5223,7120,14599,0.269,551
2021-09-14T11:49:40,42.805,6.029,CST-1368DR,5223,7120,14599,0.269,551
2021-09-14T11:52:42,42.805,6.029,CST-1368DR,5223,7120,14600,0.269,551
2021-09-14T11:55:44,42.805,6.029,CST-1368DR,5223,7120,14600,0.269,551
2021-09-14T11:58:45,42.805,6.029,CST-1368DR,5223,7119,14599,0.269,551
2021-09-14T12:01:47,42.805,6.029,CST-1368DR,5223,7120,14599,0.269,551
2021-09-14T12:04:48,42.805,6.029,CST-1368DR,5223,7119,14598,0.270,551
2021-09-14T12:07:50,42.805,6.029,CST-1368DR,5223,7119,14599,0.269,551
2021-09-14T12:10:51,42.805,6.029,CST-1368DR,5223,7119,14598,0.270,551
2021-09-14T12:13:53,42.805,6.029,CST-1368DR,5223,7120,14600,0.269,551
2021-09-14T12:16:55,42.805,6.029,CST-1368DR,5223,7119,14599,0.269,551
2021-09-14T12:19:56,42.805,6.029,CST-1368DR,5223,7119,14599,0.269,551
2021-09-14T12:22:58,42.805,6.029,CST-1368DR,5223,7119,14599,0.269,551
2021-09-14T12:25:59,42.805,6.029,CST-1368DR,5223,7119,14598,0.270,551
2021-09-14T12:29:01,42.805,6.029,CST-1368DR,5223,7119,14598,0.270,551
2021-09-14T12:32:03,42.805,6.029,CST-1368DR,5223,7119,14599,0.269,551
2021-09-14T12:35:04,42.805,6.029,CST-1368DR,5223,7119,14599,0.269,551
2021-09-14T12:38:06,42.805,6.029,CST-1368DR,5223,7120,14599,0.269,551
2021-09-14T12:41:07,42.805,6.029,CST-1368DR,5223,7118,14597,0.270,551
2021-09-14T12:44:09,42.805,6.029,CST-1368DR,5223,7120,14600,0.269,551
2021-09-14T12:47:10,42.805,6.029,CST-1368DR,5223,7119,14598,0.270,550
2021-09-14T12:50:12,42.805,6.029,CST-1368DR,5223,7119,14599,0.269,551
2021-09-14T12:53:14,42.805,6.029,CST-1368DR,5223,7119,14599,0.269,551
2021-09-14T12:56:15,42.805,6.029,CST-1368DR,5223,7119,14599,0.269,550
2021-09-14T12:59:17,42.805,6.029,CST-1368DR,5223,7119,14598,0.270,551
2021-09-14T13:02:18,42.805,6.029,CST-1368DR,5223,7119,14598,0.270,551
2021-09-14T13:05:20,42.805,6.029,CST-1368DR,5223,7120,14599,0.269,551
2021-09-14T13:08:21,42.805,6.029,CST-1368DR,5223,7120,14599,0.269,551
2021-09-14T13:11:23,42.805,6.029,CST-1368DR,5223,7119,14598,0.270,551
2021-09-14T13:14:25,42.805,6.029,CST-1368DR,5223,7119,14598,0.270,551
2021-09-14T13:17:26,42.805,6.029,CST-1368DR,5223,7120,14599,0.269,551
2021-09-14T13:20:28,42.805,6.029,CST-1368DR,5223,7120,14599,0.269,551
2021-09-14T13:23:29,42.805,6.029,CST-1368DR,5223,7119,14598,0.270,551
2021-09-14T13:26:31,42.805,6.029,CST-1368DR,5223,7119,14599,0.269,551
2021-09-14T13:29:33,42.805,6.029,CST-1368DR,5223,7120,14599,0.269,551
2021-09-14T13:32:34,42.805,6.029,CST-1368DR,5223,7119,14598,0.270,551
2021-09-14T13:35:36,42.805,6.029,CST-1368DR,5223,7119,14598,0.270,551
2021-09-14T13:38:37,42.805,6.029,CST-1368DR,5223,7119,14599,0.269,551
2021-09-14T13:41:39,42.805,6.029,CST-1368DR,5223,7120,14599,0.269,551
2021-09-14T13:44:40,42.805,6.029,CST-1368DR,5223,7119,14598,0.270,551
2021-09-14T13:47:42,42.805,6.029,CST-1368DR,5223,7119,14598,0.270,551
2021-09-14T13:50:44,42.805,6.029,CST-1368DR,5223,7119,14599,0.269,550
2021-09-14T13:53:45,42.805,6.029,CST-1368DR,5223,7119,14597,0.270,551
2021-09-14T13:56:47,42.805,6.029,CST-1368DR,5223,7118,14597,0.270,551
2021-09-14T13:59:48,42.805,6.029,CST-1368DR,5223,7119,14597,0.270,551
2021-09-14T14:02:50,42.805,6.029,CST-1368DR,5223,7119,14597,0.270,551
2021-09-14T14:05:52,42.805,6.029,CST-1368DR,5223,7119,14598,0.270,551
2021-09-14T14:08:53,42.805,6.029,CST-1368DR,5223,7118,14597,0.270,551
2021-09-14T14:11:55,42.805,6.029,CST-1368DR,5223,7119,14598,0.270,551
2021-09-14T14:14:56,42.805,6.029,CST-1368DR,5223,7119,14599,0.269,551
2021-09-14T14:17:58,42.805,6.029,CST-1368DR,5223,7119,14598,0.270,551
2021-09-14T14:20:59,42.805,6.029,CST-1368DR,5223,7119,14598,0.270,551
2021-09-14T14:24:01,42.805,6.029,CST-1368DR,5223,7119,14598,0.270,551
2021-09-14T14:27:03,42.805,6.029,CST-1368DR,5223,7119,14597,0.270,551
2021-09-14T14:30:04,42.805,6.029,CST-1368DR,5223,7119,14597,0.270,551
2021-09-14T14:33:06,42.805,6.029,CST-1368DR,5223,7118,14596,0.270,551
2021-09-14T14:36:07,42.805,6.029,CST-1368DR,5223,7119,14597,0.270,551
2021-09-14T14:39:09,42.805,6.029,CST-1368DR,5223,7119,14597,0.270,551
2021-09-14T14:42:10,42.805,6.029,CST-1368DR,5223,7119,14597,0.270,551
2021-09-14T14:45:12,42.805,6.029,CST-1368DR,5223,7118,14597,0.270,551
2021-09-14T14:48:14,42.805,6.029,CST-1368DR,5223,7119,14597,0.270,551
2021-09-14T14:51:15,42.805,6.029,CST-1368DR,5223,7118,14597,0.270,551
2021-09-14T14:54:17,42.805,6.029,CST-1368DR,5223,7119,14597,0.270,551
2021-09-14T14:57:18,42.805,6.029,CST-1368DR,5223,7119,14597,0.270,551
2021-09-14T15:00:20,42.805,6.029,CST-1368DR,5223,7119,14598,0.270,551
2021-09-14T15:03:22,42.805,6.029,CST-1368DR,5223,7119,14598,0.270,551
2021-09-14T15:06:23,42.805,6.029,CST-1368DR,5223,7119,14597,0.270,551
2021-09-14T15:09:25,42.805,6.029,CST-1368DR,5223,7118,14597,0.270,551
2021-09-14T15:12:26,42.805,6.029,CST-1368DR,5223,7119,14598,0.270,551
2021-09-14T15:15:28,42.805,6.029,CST-1368DR,5223,7118,14597,0.270,551
2021-09-14T15:18:29,42.805,6.029,CST-1368DR,5223,7119,14597,0.270,551
2021-09-14T15:21:31,42.805,6.029,CST-1368DR,5223,7119,14597,0.270,551
2021-09-14T15:24:33,42.805,6.029,CST-1368DR,5223,7118,14596,0.270,551
2021-09-14T15:27:34,42.805,6.029,CST-1368DR,5223,7118,14596,0.270,551
2021-09-14T15:30:36,42.805,6.029,CST-1368DR,5223,7118,14596,0.270,551
2021-09-14T15:33:37,42.805,6.029,CST-1368DR,5223,7118,14597,0.270,551
2021-09-14T15:36:39,42.805,6.029,CST-1368DR,5223,7119,14598,0.270,551
2021-09-14T15:39:40,42.805,6.029,CST-1368DR,5223,7118,14597,0.270,551
2021-09-14T15:42:42,42.805,6.029,CST-1368DR,5223,7119,14597,0.270,551
2021-09-14T15:45:44,42.805,6.029,CST-1368DR,5223,7119,14597,0.270,551
2021-09-14T15:48:45,42.805,6.029,CST-1368DR,5223,7118,14597,0.270,551
2021-09-14T15:51:47,42.805,6.029,CST-1368DR,5223,7118,14596,0.270,551
2021-09-14T15:54:48,42.805,6.029,CST-1368DR,5223,7118,14596,0.270,551
2021-09-14T15:57:50,42.805,6.029,CST-1368DR,5223,7119,14597,0.270,551
2021-09-14T16:00:52,42.805,6.029,CST-1368DR,5223,7118,14596,0.270,551
2021-09-14T16:03:53,42.805,6.029,CST-1368DR,5223,7118,14597,0.270,551
2021-09-14T16:06:55,42.805,6.029,CST-1368DR,5223,7117,14594,0.271,551
2021-09-14T16:09:56,42.805,6.029,CST-1368DR,5223,7118,14597,0.270,551
2021-09-14T16:12:58,42.805,6.029,CST-1368DR,5223,7118,14597,0.270,551
2021-09-14T16:15:59,42.805,6.029,CST-1368DR,5223,7118,14596,0.270,551
2021-09-14T16:19:01,42.805,6.029,CST-1368DR,5223,7119,14598,0.270,551
2021-09-14T16:22:03,42.805,6.029,CST-1368DR,5223,7119,14598,0.270,551
2021-09-14T16:25:04,42.805,6.029,CST-1368DR,5223,7118,14597,0.270,551
2021-09-14T16:28:06,42.805,6.029,CST-1368DR,5223,7119,14598,0.270,551
2021-09-14T16:31:07,42.805,6.029,CST-1368DR,5223,7119,14598,0.270,551
2021-09-14T16:34:09,42.805,6.029,CST-1368DR,5223,7119,14598,0.270,551
2021-09-14T16:37:10,42.805,6.029,CST-1368DR,5223,7117,14594,0.271,551
2021-09-14T16:40:12,42.805,6.029,CST-1368DR,5223,7119,14597,0.270,551
2021-09-14T16:43:14,42.805,6.029,CST-1368DR,5223,7118,14596,0.270,551
2021-09-14T16:46:15,42.805,6.029,CST-1368DR,5223,7118,14596,0.270,551
2021-09-14T16:49:17,42.805,6.029,CST-1368DR,5223,7118,14596,0.270,551
2021-09-14T16:52:18,42.805,6.029,CST-1368DR,5223,7118,14597,0.270,551